Dewpoint
39 39 40 41 40 40 40 41 41 44 45 45 42 46 45 45 43 41 40 40 34 32 33 35 36 34 34 32 28 32 33 35 34 29 29 31 31 33 33 34 36 34 32 31 31 30 28 36 36 37 37 33 34 37
39 39 40 41 40 40 40 41 40 42 44 46 43 41 44 44 43 42 38 40 38 32 31 36 36 37 35 34 33 34 33 31 32 30 33 32 31 35 33 29 37 34 34 33 33 32 36 36 33 35 33 31 34 36
39 39 40 40 40 39 39 40 40 41 43 45 46 42 42 44 43 41 38 38 36 33 30 32 30 35 38 38 36 30 33 33 33 35 31 31 32 36 32 32 35 37 38 35 35 36 38 39 37 34 32 30 35 38
39 40 40 38 38 38 38 39 40 40 41 43 45 45 46 44 43 42 38 38 34 31 25 24 35 35 37 38 38 37 35 37 37 36 31 29 27 31 34 33 33 36 37 36 36 35 37 38 37 37 32 36 37 38
40 39 38 37 37 37 38 39 40 39 39 41 43 44 43 45 43 41 41 40 36 28 23 27 34 34 35 36 36 37 36 34 33 32 30 29 34 33 36 35 33 38 36 35 33 36 35 34 36 37 36 35 36 36
38 38 38 37 37 37 37 38 39 39 39 43 43 42 43 42 39 37 33 38 41 37 30 23 29 33 35 35 35 35 34 32 34 32 31 33 36 31 30 32 36 38 39 37 34 37 36 38 39 37 35 36 38 37
37 37 37 36 36 36 36 37 38 39 38 41 41 43 41 39 39 34 33 37 41 39 31 27 25 31 32 34 34 33 35 34 34 32 31 32 34 36 31 31 35 37 40 39 38 38 36 37 37 34 33 37 37 38
37 37 37 37 36 35 37 38 37 39 38 40 41 42 42 40 39 35 39 41 40 35 34 26 26 27 34 29 28 33 31 32 33 32 33 31 33 34 29 34 35 37 40 38 38 35 35 36 33 33 36 35 35 36
37 38 38 37 37 36 37 38 38 40 39 39 39 38 38 35 33 35 40 42 40 35 28 28 23 20 33 30 32 30 31 26 32 30 30 33 31 29 32 33 34 39 39 39 35 30 31 31 30 32 31 31 31 32
38 38 37 37 38 37 37 38 37 39 39 40 38 35 26 34 39 38 35 32 31 32 30 27 30 25 30 30 29 29 30 28 24 28 32 29 29 32 33 33 33 38 39 34 30 29 30 29 28 29 29 28 29 29
36 35 35 37 37 38 38 37 36 38 38 35 32 31 36 39 34 31 28 26 28 26 28 28 29 27 33 27 27 30 27 28 22 25 26 26 26 28 29 29 30 35 35 36 32 36 34 31 26 25 24 25 26 26
32 32 33 35 36 37 37 37 36 35 33 32 34 35 35 31 27 25 24 26 25 24 28 27 29 31 31 32 28 29 25 27 21 28 25 23 25 27 28 28 29 29 29 28 28 29 29 28 27 27 27 26 27 30
31 32 32 33 35 36 37 36 36 37 38 37 34 30 29 26 21 20 16 20 22 27 29 29 28 30 31 31 28 27 23 22 28 23 22 24 27 30 30 30 31 32 32 31 32 32 31 30 30 29 29 29 29 29
31 32 32 33 36 35 35 36 36 37 34 30 25 18 18 19 21 20 21 22 24 27 30 30 29 28 30 27 27 22 25 25 20 17 19 24 29 30 30 30 30 30 31 31 31 31 30 30 29 29 30 29 28 28
31 31 32 32 34 34 35 36 36 37 31 23 22 19 19 19 23 23 24 26 28 31 31 30 29 27 23 24 25 21 20 18 19 14 23 28 30 31 30 30 30 30 30 29 30 30 30 30 30 30 30 30 30 29
30 31 33 31 32 34 35 34 34 32 29 25 24 22 24 23 23 24 26 26 31 31 28 27 22 18 18 21 19 16 15 12 16 27 28 29 30 30 30 30 30 30 29 29 29 29 30 30 30 30 30 30 30 29
30 29 33 31 32 34 34 33 29 26 23 24 22 24 26 24 20 22 26 27 29 26 20 23 16 16 19 15 15 23 19 24 27 28 28 29 28 28 28 29 29 29 29 29 29 29 29 30 30 31 30 31 31 30
28 29 30 31 32 34 31 29 25 25 21 24 20 22 25 24 23 24 25 27 27 25 24 21 24 18 14 13 14 22 27 29 28 27 27 28 28 28 29 29 29 29 28 28 28 29 29 29 29 30 30 31 31 30
29 30 32 32 33 30 28 24 26 23 22 25 26 25 24 24 26 26 27 26 27 29 27 22 20 16 17 21 21 26 28 28 28 29 29 29 28 28 28 28 28 28 28 29 29 28 29 29 30 31 31 30 29 30
30 30 27 30 33 29 28 24 26 23 22 23 25 25 25 24 26 26 26 25 26 24 23 21 20 21 20 23 27 27 30 29 29 28 28 29 29 28 27 27 26 27 28 28 28 29 29 30 31 31 31 31 30 29
25 29 30 30 30 30 28 25 21 22 23 23 24 25 25 27 26 26 24 25 24 21 20 23 23 23 28 29 30 29 30 30 28 27 28 28 29 29 29 29 28 28 27 27 27 28 30 28 30 31 31 31 31 31
24 30 26 28 26 27 27 25 21 24 22 22 24 24 24 24 23 23 24 23 23 22 23 23 25 26 27 27 29 30 31 30 30 29 29 29 28 28 29 29 28 28 28 26 26 26 28 31 31 31 31 30 31 30
23 28 26 26 23 21 20 25 22 22 16 20 22 20 20 21 23 25 22 23 24 27 26 25 26 27 28 29 33 32 31 31 30 29 30 30 30 29 29 29 28 27 27 28 27 28 30 31 31 31 30 30 30 29
25 22 19 21 21 17 20 22 22 21 21 19 19 16 16 18 25 23 20 23 26 28 28 28 29 29 30 31 31 31 32 30 29 29 29 29 29 29 29 28 28 27 27 29 30 30 29 29 28 28 28 28 29 28
17 17 20 17 21 19 19 20 20 18 17 17 15 13 16 23 18 19 19 23 24 25 26 28 28 28 28 29 30 30 32 32 31 30 29 29 28 28 28 28 28 28 28 27 28 29 28 28 27 26 26 25 24 24
1 9 13 13 16 18 16 16 16 17 16 16 15 17 21 18 17 18 20 22 23 24 25 26 26 26 26 27 26 26 28 31 31 31 30 30 29 27 27 27 28 28 30 29 28 29 29 29 28 27 27 26 25 24
3 6 17 21 22 20 19 19 19 16 16 14 15 16 15 15 15 18 22 24 23 25 25 26 27 26 25 25 26 27 28 30 30 31 33 32 32 30 29 28 28 29 30 30 30 30 29 29 28 28 28 27 28 27
11 14 15 18 19 21 16 17 15 13 14 19 15 13 11 11 15 20 22 25 25 25 26 26 24 21 20 20 21 24 26 27 29 31 32 33 33 32 31 30 30 30 31 30 30 31 31 31 30 29 29 28 28 29
12 17 19 14 16 16 16 15 15 18 19 16 14 15 17 21 22 23 24 23 23 21 21 20 20 18 18 18 17 19 22 24 24 24 24 26 29 30 31 31 31 31 30 30 30 30 31 31 30 29 29 28 28 28
11 18 13 11 11 11 15 17 17 16 17 17 16 17 18 17 18 18 19 21 21 19 15 16 15 16 16 17 16 16 19 21 21 21 21 23 25 28 30 30 31 31 30 30 29 29 28 28 28 28 27 27 28 28
15 14 12 12 11 14 16 17 16 15 13 12 11 10 11 12 17 17 17 14 13 14 16 16 16 15 16 16 16 14 14 16 18 19 21 22 25 27 28 30 31 31 31 31 30 30 29 29 28 28 27 27 27 28
12 10 10 10 11 15 17 15 14 13 12 12 13 12 13 12 12 15 15 14 15 15 14 13 14 15 15 16 16 15 14 15 15 16 17 20 21 22 24 29 30 31 30 30 30 29 28 28 27 27 27 26 26 26
11 10 10 10 10 11 12 12 11 10 10 11 11 11 9 10 11 15 16 13 13 13 13 13 14 14 14 12 12 13 13 13 13 15 16 18 19 20 20 22 28 30 30 29 29 28 28 27 26 25 25 25 25 24
Wind_Speed
21 21 23 25 29 31 33 33 36 35 27 10 9 4 32 30 26 16 5 4 7 5 1 1 6 13 7 8 9 3 1 5 14 13 7 11 8 13 7 7 13 18 19 12 13 13 19 11 11 30 18 5 8 23
20 21 23 25 28 31 32 32 32 33 29 16 17 19 15 24 20 7 6 6 9 6 4 2 2 2 4 9 9 5 3 2 2 2 7 7 4 8 13 15 6 16 14 15 19 15 5 7 8 9 4 6 5 15
19 20 21 23 26 29 30 31 28 30 26 17 9 23 26 15 18 6 8 5 7 5 2 0 4 0 2 6 6 6 3 7 8 5 2 6 7 8 10 10 9 7 7 9 9 13 10 8 4 4 4 2 1 6
20 20 20 22 24 27 29 29 26 28 25 21 6 12 5 22 23 10 5 3 10 6 1 4 2 7 2 4 3 4 6 7 7 8 6 4 7 8 4 7 17 9 20 13 5 10 13 18 15 11 6 12 14 10
19 19 20 22 23 25 26 27 25 25 25 22 10 3 6 10 16 13 9 5 4 5 4 5 4 6 5 4 8 1 2 4 4 5 6 9 6 6 6 5 15 13 13 22 24 19 25 20 28 14 16 21 27 20
22 22 22 22 22 23 24 25 26 20 23 20 9 8 8 18 16 9 3 3 3 6 3 3 4 3 1 5 7 9 9 7 5 6 6 6 6 6 9 6 6 13 14 22 13 19 27 16 24 22 23 23 22 26
22 23 23 23 23 23 23 23 22 17 19 20 8 10 16 16 8 3 2 1 8 10 4 3 5 2 4 3 3 5 7 7 8 6 8 8 8 12 6 6 7 17 12 10 7 15 11 17 21 22 20 19 17 9
21 23 24 24 23 23 23 23 21 17 8 9 18 14 15 11 8 2 7 5 10 6 2 2 4 2 9 6 5 8 7 7 8 8 5 11 6 8 9 20 15 13 10 9 18 16 18 17 17 17 21 23 21 21
22 21 21 23 24 23 23 24 25 20 9 2 8 9 7 6 1 0 1 6 7 3 4 5 5 4 8 5 6 4 7 9 7 13 14 12 11 9 18 19 16 15 11 8 12 11 14 21 23 23 25 24 27 21
21 20 20 21 23 22 22 21 22 15 8 2 4 2 1 1 7 4 3 5 5 6 4 4 3 5 9 5 6 5 8 6 6 10 8 10 7 19 12 12 9 12 6 14 16 15 19 19 20 20 20 22 27 25
22 21 23 22 22 23 20 20 19 11 1 1 1 2 1 9 2 2 3 4 5 3 5 5 10 8 7 8 8 7 4 4 5 7 10 8 6 7 3 10 15 14 13 11 4 16 22 21 22 24 20 20 24 26
21 22 23 24 22 22 19 20 17 4 3 2 1 1 2 2 2 3 4 3 5 4 4 3 5 6 4 4 6 4 4 4 6 5 5 4 3 5 4 10 12 15 18 16 16 18 17 20 21 24 25 24 21 20
22 23 24 25 24 22 19 22 18 13 9 2 4 3 3 2 3 4 5 4 3 2 4 5 4 2 3 2 3 3 4 4 2 2 1 3 2 6 9 13 19 17 23 23 18 22 19 19 20 27 22 21 23 23
23 24 25 25 20 16 20 23 20 10 3 5 5 4 5 4 5 4 3 3 5 4 6 3 3 4 2 1 2 3 3 4 4 1 3 1 7 10 11 8 24 21 23 20 19 20 22 21 21 21 21 20 25 24
23 26 29 22 14 18 22 25 22 6 5 3 2 4 7 4 3 4 4 4 5 5 3 2 3 4 4 2 1 3 4 4 4 4 4 4 11 13 13 17 23 20 18 17 15 20 20 19 20 19 14 16 20 22
21 21 4 13 20 23 24 19 2 4 3 3 3 2 1 2 3 3 3 4 3 3 1 2 2 1 2 2 3 3 3 2 4 6 3 8 14 13 14 12 15 17 16 16 16 17 19 18 18 18 16 14 15 18
18 7 7 22 26 28 23 4 2 4 5 4 4 3 3 3 6 3 3 3 2 1 1 0 2 1 3 2 1 1 2 4 9 5 3 7 11 13 14 13 13 15 16 16 16 15 16 16 17 17 19 15 16 16
17 16 18 21 18 11 4 2 3 4 6 5 4 7 5 3 3 4 3 2 3 1 1 0 0 1 1 1 3 1 1 1 2 1 5 10 12 11 10 14 13 15 15 13 14 14 14 15 15 13 17 17 17 15
15 14 15 17 10 5 3 3 3 4 8 5 4 4 4 2 4 3 4 5 3 2 3 2 2 2 2 3 3 3 4 3 1 4 7 8 10 11 11 10 10 12 14 14 13 11 10 10 11 12 14 15 14 13
18 20 18 14 7 3 3 4 2 3 5 7 4 9 4 3 4 4 3 3 3 2 2 2 3 2 1 1 4 3 6 7 9 6 4 5 6 11 12 13 10 10 10 10 10 10 9 9 9 10 11 12 14 14
6 6 7 6 6 8 4 3 4 5 4 5 6 11 5 2 3 4 3 3 2 3 3 4 4 3 3 3 2 5 10 14 10 9 9 9 8 8 10 9 10 9 9 9 9 8 8 9 9 10 12 11 11 12
5 6 1 3 4 4 5 6 3 3 5 3 7 7 5 6 5 7 4 3 3 4 5 3 3 2 3 4 4 4 7 9 8 8 10 12 10 9 9 9 10 9 8 10 9 9 7 7 9 10 10 10 12 12
3 4 2 3 4 5 6 4 6 6 6 6 7 7 4 5 6 8 4 4 2 4 4 3 5 4 6 3 2 3 5 8 8 9 11 11 11 10 10 11 11 11 10 8 11 11 9 10 12 12 11 12 13 12
8 4 4 5 8 5 3 4 4 6 5 6 7 5 5 6 8 4 3 3 1 5 6 7 6 2 6 8 5 3 1 6 5 3 6 9 10 10 11 12 11 12 12 11 11 11 12 14 14 14 15 16 14 13
6 6 5 7 5 5 5 5 6 6 6 6 7 4 5 5 6 5 5 4 2 3 5 6 10 9 8 7 9 10 12 3 4 6 8 8 6 7 9 9 11 12 13 13 13 14 13 13 14 16 16 16 17 16
6 5 9 7 4 6 8 6 8 7 6 5 6 5 4 4 4 3 4 3 3 4 6 8 6 7 11 10 7 9 10 9 5 8 9 14 13 15 15 13 13 13 12 15 16 16 15 14 15 17 16 16 19 18
2 3 4 5 3 2 3 1 3 5 3 5 6 4 4 5 3 3 3 3 4 5 6 9 10 11 9 8 7 7 9 9 7 7 7 11 13 14 16 18 19 12 15 16 17 19 19 18 17 19 18 15 16 17
2 3 4 2 1 1 2 3 3 3 3 2 7 3 6 3 2 2 3 5 4 6 10 11 11 10 10 9 9 9 9 11 10 6 3 3 3 11 13 11 8 11 15 17 17 16 18 19 19 19 19 18 15 14
3 6 5 2 2 3 3 2 3 3 5 2 4 3 3 4 3 5 5 5 6 8 7 6 8 10 12 12 13 14 12 11 12 11 11 11 8 8 8 12 12 13 14 16 17 18 20 19 19 19 19 17 16 16
3 5 3 4 3 3 4 4 4 4 7 5 4 5 6 5 9 8 7 4 3 3 4 6 6 10 11 12 13 14 12 13 14 11 9 9 12 13 12 5 6 10 12 15 17 16 15 13 11 10 14 14 14 14
3 2 2 2 2 4 4 5 8 8 6 7 7 6 6 4 4 13 15 7 7 8 8 9 10 10 10 9 10 13 15 9 14 14 13 11 13 13 12 11 6 5 9 15 17 17 15 15 15 16 17 16 16 15
4 4 2 2 3 2 5 5 4 4 4 4 4 3 3 5 4 6 13 9 14 14 10 9 8 6 7 6 5 5 6 10 14 14 13 11 10 13 15 12 8 6 9 10 14 18 20 18 16 16 17 19 19 18
4 4 4 2 2 3 4 4 4 3 6 4 5 4 4 3 4 2 3 9 8 7 7 6 4 4 5 5 5 9 11 12 14 14 13 13 12 12 12 13 11 7 10 12 13 15 21 22 19 19 19 19 18 19
Wind_Direction
340 341 340 338 336 338 341 345 348 350 358 6 27 130 124 126 136 107 118 26 113 94 94 195 155 150 150 167 184 194 139 171 186 201 228 240 189 196 217 194 176 175 181 193 196 203 244 216 161 176 217 215 234 208
341 342 342 342 341 342 344 345 351 355 357 7 111 106 97 106 109 117 103 65 75 105 167 290 264 158 170 188 159 165 172 65 263 264 215 278 219 169 175 215 196 186 180 178 185 210 196 192 205 226 193 166 186 173
337 341 344 347 345 345 347 346 351 355 359 1 80 167 180 175 160 142 137 163 84 96 71 225 195 181 229 201 158 159 214 179 175 182 316 296 251 196 195 215 163 204 151 173 162 225 209 221 180 141 205 164 90 137
338 341 346 349 349 348 349 349 349 357 358 356 28 51 150 207 215 182 111 98 89 91 139 273 265 252 281 233 190 130 147 128 135 159 206 248 279 298 248 238 198 175 167 172 234 242 224 241 240 178 157 119 107 112
348 345 347 350 350 352 351 351 348 354 354 350 351 54 86 57 110 85 79 40 114 158 192 282 281 251 227 210 227 193 91 125 164 203 197 217 250 296 259 269 218 172 173 188 217 205 201 217 221 179 198 180 160 151
339 337 339 344 347 350 353 352 351 346 354 356 342 96 101 108 81 84 79 321 39 113 109 289 305 283 203 193 221 228 237 231 211 199 202 218 225 186 281 247 236 226 206 203 209 199 206 200 173 188 182 181 179 164
338 334 331 333 338 343 349 352 351 345 353 10 4 141 130 119 108 82 124 233 152 86 174 226 263 297 199 177 215 213 206 214 209 213 223 221 212 188 260 248 241 221 220 226 209 162 180 168 188 177 169 171 154 135
332 334 331 329 330 334 340 345 348 348 331 26 48 71 125 119 114 60 11 109 122 110 139 259 262 277 171 199 215 183 212 205 229 228 221 216 203 182 238 241 236 229 208 214 191 200 205 177 151 145 141 142 143 141
322 326 331 328 328 328 336 342 345 341 193 92 53 33 19 34 72 263 342 95 57 121 199 207 213 253 165 215 197 195 204 220 209 209 212 188 205 216 223 236 236 205 188 187 177 164 147 158 149 150 147 147 142 140
314 320 328 330 326 325 331 344 350 7 160 272 336 300 300 183 138 97 54 164 182 214 229 228 214 243 178 193 219 212 202 232 217 216 151 212 230 232 235 247 276 237 196 141 132 144 140 135 139 140 155 154 144 143
323 323 321 323 324 323 323 338 345 341 79 318 315 39 46 152 16 212 184 199 188 234 212 231 222 223 199 216 223 214 231 227 237 203 194 186 237 236 216 227 228 193 168 194 201 175 170 158 150 141 133 125 127 130
316 315 317 317 318 319 312 327 338 330 226 164 36 230 161 244 250 236 201 195 216 240 188 219 238 220 219 205 227 219 245 235 240 168 203 167 258 330 168 151 137 133 126 117 122 122 125 136 141 132 127 125 122 122
312 312 314 314 312 313 307 316 321 302 285 171 174 202 189 188 251 216 208 205 232 207 201 209 230 231 205 207 263 262 255 280 301 275 125 235 147 101 87 91 88 96 104 102 95 100 100 99 111 118 116 119 126 122
305 307 309 310 311 318 316 315 318 314 190 198 182 234 207 221 234 211 235 262 274 263 267 195 202 191 209 248 272 289 300 294 295 303 261 278 126 109 98 114 98 87 89 97 93 94 97 102 103 108 122 131 130 130
300 304 305 302 302 318 319 315 308 213 187 223 167 237 221 231 245 242 259 263 252 247 196 215 233 174 192 234 295 308 325 309 287 310 345 148 114 110 104 102 108 108 107 102 99 98 99 101 106 105 102 115 122 125
298 306 269 345 335 324 320 321 217 165 144 185 208 224 196 191 257 268 263 265 253 233 254 219 260 196 220 193 203 236 275 264 304 344 318 136 125 120 116 112 113 113 113 112 110 109 108 107 112 112 111 113 118 124
293 238 273 325 325 318 312 256 175 206 205 195 236 196 194 236 212 219 231 285 307 275 275 331 317 338 295 288 299 59 314 301 324 335 69 103 124 125 121 118 113 109 105 104 110 111 113 118 119 123 125 121 116 116
268 276 285 301 316 314 289 225 212 208 214 195 205 216 193 209 196 253 283 309 339 327 222 259 178 309 278 347 331 227 163 47 19 123 117 119 118 116 120 125 122 119 115 119 122 124 131 138 139 134 132 133 127 129
271 272 277 289 293 299 284 243 190 234 213 180 198 171 165 201 216 227 280 304 287 269 319 328 257 224 221 223 273 221 218 185 173 37 59 81 106 113 109 99 104 111 118 126 129 133 129 128 125 132 134 138 139 142
278 283 279 265 231 229 252 240 179 218 204 203 161 174 178 198 175 196 236 321 4 6 301 253 249 271 258 332 204 226 193 170 137 114 107 115 125 135 139 139 140 136 127 124 118 122 124 116 120 124 135 138 142 144
289 240 252 183 191 211 266 246 221 214 179 185 174 157 196 155 167 182 203 164 193 227 247 245 257 273 272 294 183 171 171 167 177 163 174 163 165 147 143 141 145 146 142 141 147 146 146 151 149 139 139 140 137 143
240 287 207 192 210 216 250 229 220 177 168 159 149 166 154 176 187 202 158 170 226 228 211 219 219 235 289 294 286 218 169 159 144 129 136 141 162 163 164 160 154 158 157 170 168 172 175 143 138 138 139 136 135 140
303 200 215 216 209 213 250 169 185 184 170 182 149 160 184 184 195 141 190 201 209 345 310 275 291 280 273 309 130 142 174 172 173 172 169 170 171 167 159 163 164 170 177 180 173 176 177 160 156 147 145 144 146 151
194 191 200 210 206 229 222 207 202 163 165 166 165 180 190 176 152 179 185 127 56 358 33 27 29 51 40 37 31 39 90 176 169 167 170 163 165 169 167 171 175 179 182 179 168 165 160 163 159 158 160 160 159 159
162 211 191 215 219 204 202 187 179 177 168 172 165 173 171 154 164 170 164 141 117 37 32 58 67 66 74 67 55 53 37 90 185 203 204 195 182 164 176 181 187 193 178 171 170 166 165 158 162 167 166 166 169 175
201 201 188 201 217 191 188 177 191 164 146 154 174 150 137 128 142 169 131 127 106 48 43 62 79 78 56 38 37 20 1 353 338 216 201 192 195 189 189 194 201 216 190 178 173 172 171 170 169 172 175 178 176 177
202 267 234 228 260 209 160 129 127 120 131 156 158 128 122 160 145 108 99 51 94 76 61 66 66 69 59 36 17 358 347 354 351 294 282 205 201 200 193 200 210 209 184 184 176 173 176 180 178 181 183 181 182 180
233 299 294 168 214 85 140 97 123 132 141 125 122 125 147 127 116 101 109 128 116 94 78 72 66 60 50 39 24 9 3 352 340 334 351 74 210 214 215 213 189 184 182 184 183 177 177 180 183 182 179 181 184 183
338 328 325 169 82 40 51 70 80 50 356 56 94 92 87 59 53 86 107 90 88 93 87 65 36 34 36 27 33 30 29 27 23 21 14 9 4 22 287 208 191 183 184 184 183 182 181 179 179 177 177 179 180 178
342 11 27 20 60 74 19 23 78 53 44 61 87 88 78 69 33 16 51 70 75 56 64 80 62 60 47 38 21 21 37 40 36 30 2 355 337 335 340 348 214 191 177 171 170 164 161 163 163 161 168 171 173 178
343 77 79 86 70 32 57 56 58 53 46 50 42 85 105 117 60 35 31 31 81 82 88 69 53 42 42 32 25 10 356 2 5 357 356 351 344 334 331 331 320 210 197 182 173 174 173 173 180 178 180 182 185 183
22 37 79 83 95 31 43 45 58 61 33 60 47 55 65 72 76 40 4 34 64 63 49 47 38 19 11 9 10 7 345 332 334 332 330 330 338 342 336 320 300 234 194 193 187 175 176 184 190 190 190 188 187 188
15 34 53 66 60 84 38 77 65 68 43 58 54 49 55 77 89 108 69 47 80 79 46 16 339 327 335 346 19 26 11 358 353 355 355 348 344 342 340 337 321 267 221 202 196 194 187 185 196 203 204 199 193 194